York, PA

12:50 AM EDT on May 01, 2017 (GMT -0400)
York

Weather History for KTHV - March, 2013

Change the Weather History Date:

Friday, March 22, 2013

  Actual Average Record
Temperature  
Mean Temperature 32 °F -  
Max Temperature 41 °F 0 °F 75 °F (2007)
Min Temperature 26 °F - 19 °F (2002)
Degree Days  
Heating Degree Days 32    
Moisture  
Dew Point 16 °F    
Average Humidity 54    
Maximum Humidity 69    
Minimum Humidity 41    
Precipitation  
Precipitation 0.00 in - - ()
Sea Level Pressure  
Sea Level Pressure 29.91 in    
Wind  
Wind Speed 8 mph (West)    
Max Wind Speed 18 mph    
Max Gust Speed 25 mph    
Visibility 10 miles    
Events      
Averages and records for this station are not official NWS values.
T = Trace of Precipitation, MM = Missing Value Source: NWS Daily Summary

Daily Weather History Graph

Daily Weather History Graph

Search for Another Location

Airport or City:

Trip Planner

Search our weather history database for the weather conditions in past years. The results will help you decide how hot, cold, wet, or windy it might be!

Date:

Astronomy

Mar. 22, 2013 Rise Set
Actual Time 7:07 AM EDT 7:21 PM EDT
Civil Twilight 6:40 AM EDT 7:48 PM EDT
Nautical Twilight 6:08 AM EDT 8:20 PM EDT
Astronomical Twilight 5:36 AM EDT 8:52 PM EDT
Moon 2:47 PM EDT (3/22) 4:06 AM EDT (3/22)
Length of Visible Light 13h 08m
Length of Day
12h 14m
Waxing Gibbous, 77% of the Moon is Illuminated
Mar 22
Waxing Gibbous
Mar 27
Full
Apr 3
Last Quarter
Apr 10
New
Apr 18
First Quarter

Hourly Weather History & Observations

Time (EDT) Temp. Windchill Dew Point Humidity Pressure Visibility Wind Dir Wind Speed Gust Speed Precip Events Conditions
12:53 AM 27.0 °F 19.5 °F 12.0 °F 53% 29.85 in 10.0 mi WSW 6.9 mph - N/A   Partly Cloudy
1:53 AM 27.0 °F 19.5 °F 14.0 °F 58% 29.85 in 10.0 mi West 6.9 mph - N/A   Partly Cloudy
2:53 AM 26.1 °F 21.9 °F 15.1 °F 63% 29.86 in 10.0 mi SW 3.5 mph - N/A   Clear
3:53 AM 26.1 °F 20.5 °F 15.1 °F 63% 29.84 in 10.0 mi WSW 4.6 mph - N/A   Mostly Cloudy
4:53 AM 27.0 °F 20.5 °F 15.1 °F 61% 29.84 in 10.0 mi WSW 5.8 mph - N/A   Clear
5:53 AM 28.0 °F 20.0 °F 15.1 °F 58% 29.85 in 10.0 mi WSW 8.1 mph - N/A   Overcast
6:53 AM 28.0 °F 19.3 °F 16.0 °F 61% 29.86 in 10.0 mi WSW 9.2 mph - N/A   Partly Cloudy
7:53 AM 30.0 °F 21.7 °F 17.1 °F 59% 29.88 in 10.0 mi WSW 9.2 mph - N/A   Overcast
8:53 AM 30.9 °F 24.3 °F 18.0 °F 59% 29.90 in 10.0 mi West 6.9 mph - N/A   Overcast
9:53 AM 33.1 °F 24.4 °F 18.0 °F 54% 29.91 in 10.0 mi West 11.5 mph 17.3 mph N/A   Overcast
10:53 AM 34.0 °F 25.5 °F 18.0 °F 52% 29.92 in 10.0 mi West 11.5 mph 18.4 mph N/A   Overcast
11:53 AM 35.1 °F 27.4 °F 16.0 °F 46% 29.91 in 10.0 mi West 10.4 mph - N/A   Overcast
12:53 PM 37.0 °F 28.9 °F 16.0 °F 42% 29.91 in 10.0 mi WNW 12.7 mph 19.6 mph N/A   Overcast
1:53 PM 39.0 °F 32.3 °F 17.1 °F 41% 29.90 in 10.0 mi West 10.4 mph 19.6 mph N/A   Overcast
2:53 PM 39.0 °F 31.4 °F 17.1 °F 41% 29.88 in 10.0 mi West 12.7 mph 20.7 mph N/A   Overcast
3:53 PM 37.9 °F 28.2 °F 16.0 °F 41% 29.89 in 10.0 mi WNW 18.4 mph 24.2 mph N/A   Overcast
4:53 PM 37.9 °F 28.9 °F 18.0 °F 45% 29.91 in 10.0 mi West 16.1 mph 23.0 mph N/A   Scattered Clouds
5:53 PM 37.9 °F 29.2 °F 17.1 °F 43% 29.93 in 10.0 mi West 15.0 mph 25.3 mph N/A   Mostly Cloudy
6:53 PM 36.0 °F 27.5 °F 16.0 °F 44% 29.94 in 10.0 mi WNW 12.7 mph 20.7 mph N/A   Clear
7:53 PM 34.0 °F 27.2 °F 17.1 °F 50% 29.96 in 10.0 mi WNW 8.1 mph - N/A   Clear
8:53 PM 32.0 °F 26.4 °F 18.0 °F 56% 29.98 in 10.0 mi WNW 5.8 mph - N/A   Clear
9:53 PM 30.9 °F 25.2 °F 18.0 °F 59% 29.99 in 10.0 mi WNW 5.8 mph - N/A   Clear
10:53 PM 27.0 °F 20.5 °F 18.0 °F 69% 30.00 in 10.0 mi West 5.8 mph - N/A   Clear
11:53 PM 27.0 °F 21.6 °F 18.0 °F 69% 30.00 in 10.0 mi West 4.6 mph - N/A   Clear